contact:dominique.lefevre@mio.osupytheas.fr, maurice.libes@osupytheas.fr, didier.mallarino@osupytheas.fr
Project:EMSO http://www.emso-fr.org/EMSO-France
Depth: 2436.0 m
Title:EMSO Ligure Ouest : Data MII capteur MICROCAT
DateTime_Computer,Latitude,Longitude,Temperature,Conductivity,Pressure,DateTime_Instrument
DateTime_Computer,Latitude,Longitude,degC,S m-1,dbar,DateTime_Instrument
2021-04-20T00:02:21Z,42.805,6.029,13.3034,4.60098,2470.03,2021-4-20T02:03:30Z
2021-04-20T00:05:24Z,42.805,6.029,13.3037,4.60062,2469.97,2021-4-20T02:06:33Z
2021-04-20T00:08:27Z,42.805,6.029,13.3051,4.60033,2469.97,2021-4-20T02:09:36Z
2021-04-20T00:11:30Z,42.805,6.029,13.3048,4.60056,2469.97,2021-4-20T02:12:39Z
2021-04-20T00:14:33Z,42.805,6.029,13.3035,4.60059,2469.984,2021-4-20T02:15:42Z
2021-04-20T00:17:37Z,42.805,6.029,13.3036,4.60074,2470.007,2021-4-20T02:18:46Z
2021-04-20T00:20:40Z,42.805,6.029,13.3038,4.60075,2469.984,2021-4-20T02:21:49Z
2021-04-20T00:23:43Z,42.805,6.029,13.3031,4.60128,2469.97,2021-4-20T02:24:52Z
2021-04-20T00:26:46Z,42.805,6.029,13.3048,4.60075,2470.007,2021-4-20T02:27:55Z
2021-04-20T00:29:49Z,42.805,6.029,13.3047,4.60074,2469.993,2021-4-20T02:30:58Z
2021-04-20T00:32:52Z,42.805,6.029,13.3048,4.60055,2470.053,2021-4-20T02:34:01Z
2021-04-20T00:35:55Z,42.805,6.029,13.3039,4.60079,2469.96,2021-4-20T02:37:04Z
2021-04-20T00:38:58Z,42.805,6.029,13.3048,4.60120,2469.97,2021-4-20T02:40:07Z
2021-04-20T00:42:02Z,42.805,6.029,13.3046,4.60064,2470.007,2021-4-20T02:43:11Z
2021-04-20T00:45:05Z,42.805,6.029,13.3016,4.60093,2470.017,2021-4-20T02:46:14Z
2021-04-20T00:48:08Z,42.805,6.029,13.2993,4.60052,2469.984,2021-4-20T02:49:17Z
2021-04-20T00:51:11Z,42.805,6.029,13.3009,4.60036,2470.03,2021-4-20T02:52:20Z
2021-04-20T00:54:14Z,42.805,6.029,13.3030,4.60052,2470.03,2021-4-20T02:55:23Z
2021-04-20T00:57:17Z,42.805,6.029,13.3034,4.60072,2470.007,2021-4-20T02:58:26Z
2021-04-20T01:00:20Z,42.805,6.029,13.3026,4.60031,2469.993,2021-4-20T03:01:29Z
2021-04-20T01:03:23Z,42.805,6.029,13.3025,4.60030,2469.984,2021-4-20T03:04:32Z
2021-04-20T01:06:27Z,42.805,6.029,13.3036,4.60044,2469.993,2021-4-20T03:07:36Z
2021-04-20T01:09:30Z,42.805,6.029,13.3045,4.60028,2470.007,2021-4-20T03:10:39Z
2021-04-20T01:12:33Z,42.805,6.029,13.3037,4.60052,2470.007,2021-4-20T03:13:42Z
2021-04-20T01:15:36Z,42.805,6.029,13.3031,4.60051,2469.993,2021-4-20T03:16:45Z
2021-04-20T01:18:39Z,42.805,6.029,13.3004,4.60052,2469.993,2021-4-20T03:19:48Z
2021-04-20T01:21:42Z,42.805,6.029,13.2998,4.60067,2470.017,2021-4-20T03:22:51Z
2021-04-20T01:24:45Z,42.805,6.029,13.2996,4.60073,2469.993,2021-4-20T03:25:54Z
2021-04-20T01:27:48Z,42.805,6.029,13.3011,4.60033,2470.03,2021-4-20T03:28:57Z
2021-04-20T01:30:52Z,42.805,6.029,13.3011,4.60087,2470.03,2021-4-20T03:32:01Z
2021-04-20T01:33:55Z,42.805,6.029,13.3004,4.60069,2469.993,2021-4-20T03:35:04Z
2021-04-20T01:36:58Z,42.805,6.029,13.3009,4.60103,2470.017,2021-4-20T03:38:07Z
2021-04-20T01:40:01Z,42.805,6.029,13.3009,4.60092,2470.04,2021-4-20T03:41:10Z
2021-04-20T01:43:04Z,42.805,6.029,13.3011,4.60075,2469.993,2021-4-20T03:44:13Z
2021-04-20T01:46:07Z,42.805,6.029,13.2998,4.60053,2470.007,2021-4-20T03:47:16Z
2021-04-20T01:49:10Z,42.805,6.029,13.2995,4.60097,2470.03,2021-4-20T03:50:19Z
2021-04-20T01:52:13Z,42.805,6.029,13.3009,4.60095,2470.03,2021-4-20T03:53:22Z
2021-04-20T01:55:17Z,42.805,6.029,13.2993,4.60135,2470.053,2021-4-20T03:56:26Z
2021-04-20T01:58:20Z,42.805,6.029,13.3005,4.60070,2470.03,2021-4-20T03:59:29Z
2021-04-20T02:01:23Z,42.805,6.029,13.2998,4.60049,2469.993,2021-4-20T04:02:32Z
2021-04-20T02:04:26Z,42.805,6.029,13.3000,4.60062,2470.017,2021-4-20T04:05:35Z
2021-04-20T02:07:29Z,42.805,6.029,13.3019,4.60052,2470.053,2021-4-20T04:08:38Z
2021-04-20T02:10:32Z,42.805,6.029,13.3029,4.60055,2470.04,2021-4-20T04:11:41Z
2021-04-20T02:13:35Z,42.805,6.029,13.3023,4.60079,2470.04,2021-4-20T04:14:44Z
2021-04-20T02:16:38Z,42.805,6.029,13.3021,4.60060,2470.04,2021-4-20T04:17:47Z
2021-04-20T02:19:41Z,42.805,6.029,13.3019,4.60072,2470.04,2021-4-20T04:20:50Z
2021-04-20T02:22:45Z,42.805,6.029,13.3027,4.60073,2470.04,2021-4-20T04:23:54Z
2021-04-20T02:25:48Z,42.805,6.029,13.2996,4.60089,2470.03,2021-4-20T04:26:57Z
2021-04-20T02:28:51Z,42.805,6.029,13.3017,4.60034,2470.053,2021-4-20T04:30:00Z
2021-04-20T02:31:54Z,42.805,6.029,13.3021,4.60060,2470.017,2021-4-20T04:33:03Z
2021-04-20T02:34:57Z,42.805,6.029,13.3012,4.60044,2470.063,2021-4-20T04:36:06Z
2021-04-20T02:38:00Z,42.805,6.029,13.3029,4.60022,2470.017,2021-4-20T04:39:09Z
2021-04-20T02:41:03Z,42.805,6.029,13.3015,4.60044,2470.077,2021-4-20T04:42:12Z
2021-04-20T02:44:06Z,42.805,6.029,13.3038,4.60029,2470.017,2021-4-20T04:45:15Z
2021-04-20T02:47:10Z,42.805,6.029,13.3009,4.60069,2470.017,2021-4-20T04:48:19Z
2021-04-20T02:50:13Z,42.805,6.029,13.3016,4.60064,2470.017,2021-4-20T04:51:22Z
2021-04-20T02:53:16Z,42.805,6.029,13.3012,4.60074,2470.053,2021-4-20T04:54:25Z
2021-04-20T02:56:19Z,42.805,6.029,13.3000,4.60026,2470.03,2021-4-20T04:57:28Z
2021-04-20T02:59:22Z,42.805,6.029,13.3005,4.60075,2470.017,2021-4-20T05:00:31Z
2021-04-20T03:02:25Z,42.805,6.029,13.3019,4.60079,2470.03,2021-4-20T05:03:34Z
2021-04-20T03:05:28Z,42.805,6.029,13.2998,4.60049,2470.03,2021-4-20T05:06:37Z
2021-04-20T03:08:31Z,42.805,6.029,13.3013,4.60092,2470.017,2021-4-20T05:09:40Z
2021-04-20T03:11:35Z,42.805,6.029,13.3009,4.60049,2470.04,2021-4-20T05:12:44Z
2021-04-20T03:14:38Z,42.805,6.029,13.3010,4.60040,2470.03,2021-4-20T05:15:47Z
2021-04-20T03:17:41Z,42.805,6.029,13.2999,4.60094,2470.04,2021-4-20T05:18:50Z
2021-04-20T03:20:44Z,42.805,6.029,13.3011,4.60087,2470.04,2021-4-20T05:21:53Z
2021-04-20T03:23:47Z,42.805,6.029,13.3014,4.60092,2470.04,2021-4-20T05:24:56Z
2021-04-20T03:26:50Z,42.805,6.029,13.3018,4.60054,2470.03,2021-4-20T05:27:59Z
2021-04-20T03:29:53Z,42.805,6.029,13.3018,4.60050,2470.04,2021-4-20T05:31:02Z
2021-04-20T03:32:56Z,42.805,6.029,13.3009,4.60040,2470.04,2021-4-20T05:34:05Z
2021-04-20T03:36:00Z,42.805,6.029,13.3019,4.60055,2470.017,2021-4-20T05:37:09Z
2021-04-20T03:39:03Z,42.805,6.029,13.2996,4.60075,2470.053,2021-4-20T05:40:12Z
2021-04-20T03:42:06Z,42.805,6.029,13.3005,4.60074,2470.03,2021-4-20T05:43:15Z
2021-04-20T03:45:09Z,42.805,6.029,13.3009,4.60098,2470.04,2021-4-20T05:46:18Z
2021-04-20T03:48:12Z,42.805,6.029,13.2996,4.60081,2470.053,2021-4-20T05:49:21Z
2021-04-20T03:51:15Z,42.805,6.029,13.3014,4.60069,2470.053,2021-4-20T05:52:24Z
2021-04-20T03:54:18Z,42.805,6.029,13.3002,4.60039,2470.04,2021-4-20T05:55:27Z
2021-04-20T03:57:21Z,42.805,6.029,13.2993,4.60026,2470.053,2021-4-20T05:58:30Z
2021-04-20T04:00:25Z,42.805,6.029,13.2996,4.60072,2470.017,2021-4-20T06:01:34Z
2021-04-20T04:03:28Z,42.805,6.029,13.2993,4.60068,2470.03,2021-4-20T06:04:37Z
2021-04-20T04:06:31Z,42.805,6.029,13.3000,4.60067,2470.04,2021-4-20T06:07:40Z
2021-04-20T04:09:34Z,42.805,6.029,13.3017,4.60091,2470.017,2021-4-20T06:10:43Z
2021-04-20T04:12:37Z,42.805,6.029,13.3000,4.60055,2470.017,2021-4-20T06:13:46Z
2021-04-20T04:15:40Z,42.805,6.029,13.3039,4.60091,2470.077,2021-4-20T06:16:49Z
2021-04-20T04:18:43Z,42.805,6.029,13.3002,4.60081,2470.077,2021-4-20T06:19:52Z
2021-04-20T04:21:46Z,42.805,6.029,13.3008,4.60074,2470.03,2021-4-20T06:22:55Z
2021-04-20T04:24:50Z,42.805,6.029,13.3009,4.60102,2470.053,2021-4-20T06:25:59Z
2021-04-20T04:27:53Z,42.805,6.029,13.3024,4.60011,2470.04,2021-4-20T06:29:02Z
2021-04-20T04:30:56Z,42.805,6.029,13.3016,4.60030,2470.04,2021-4-20T06:32:05Z
2021-04-20T04:33:59Z,42.805,6.029,13.3011,4.60038,2470.04,2021-4-20T06:35:08Z
2021-04-20T04:37:02Z,42.805,6.029,13.3009,4.60033,2470.04,2021-4-20T06:38:11Z
2021-04-20T04:40:05Z,42.805,6.029,13.3008,4.60029,2470.063,2021-4-20T06:41:14Z
2021-04-20T04:43:08Z,42.805,6.029,13.3009,4.60047,2470.053,2021-4-20T06:44:17Z
2021-04-20T04:46:11Z,42.805,6.029,13.3019,4.60052,2470.053,2021-4-20T06:47:20Z
2021-04-20T04:49:15Z,42.805,6.029,13.3009,4.60060,2470.1,2021-4-20T06:50:24Z
2021-04-20T04:52:18Z,42.805,6.029,13.3000,4.60087,2470.077,2021-4-20T06:53:27Z
2021-04-20T04:55:21Z,42.805,6.029,13.2993,4.60089,2470.053,2021-4-20T06:56:30Z
2021-04-20T04:58:24Z,42.805,6.029,13.2998,4.60096,2470.053,2021-4-20T06:59:33Z
2021-04-20T05:01:27Z,42.805,6.029,13.3002,4.60064,2470.04,2021-4-20T07:02:36Z
2021-04-20T05:04:30Z,42.805,6.029,13.2994,4.60068,2470.063,2021-4-20T07:05:39Z
2021-04-20T05:07:33Z,42.805,6.029,13.3004,4.60087,2470.053,2021-4-20T07:08:42Z
2021-04-20T05:10:36Z,42.805,6.029,13.3018,4.60049,2470.017,2021-4-20T07:11:45Z
2021-04-20T05:13:40Z,42.805,6.029,13.3005,4.60025,2470.04,2021-4-20T07:14:49Z
2021-04-20T05:16:43Z,42.805,6.029,13.3001,4.60029,2470.04,2021-4-20T07:17:52Z
2021-04-20T05:19:46Z,42.805,6.029,13.3012,4.60033,2470.03,2021-4-20T07:20:55Z
2021-04-20T05:22:49Z,42.805,6.029,13.3027,4.60045,2470.053,2021-4-20T07:23:58Z
2021-04-20T05:25:52Z,42.805,6.029,13.3021,4.60057,2470.053,2021-4-20T07:27:01Z
2021-04-20T05:28:55Z,42.805,6.029,13.3014,4.60061,2469.993,2021-4-20T07:30:04Z
2021-04-20T05:31:58Z,42.805,6.029,13.3007,4.60064,2470.04,2021-4-20T07:33:07Z
2021-04-20T05:35:01Z,42.805,6.029,13.3023,4.60040,2470.04,2021-4-20T07:36:10Z
2021-04-20T05:38:05Z,42.805,6.029,13.3009,4.60067,2470.04,2021-4-20T07:39:14Z
2021-04-20T05:41:08Z,42.805,6.029,13.3028,4.60050,2470.03,2021-4-20T07:42:17Z
2021-04-20T05:44:11Z,42.805,6.029,13.2998,4.60044,2470.053,2021-4-20T07:45:20Z
2021-04-20T05:47:14Z,42.805,6.029,13.3006,4.60066,2470.053,2021-4-20T07:48:23Z
2021-04-20T05:50:17Z,42.805,6.029,13.3007,4.60063,2470.017,2021-4-20T07:51:26Z
2021-04-20T05:53:20Z,42.805,6.029,13.3006,4.60097,2470.017,2021-4-20T07:54:29Z
2021-04-20T05:56:23Z,42.805,6.029,13.3027,4.60102,2470.077,2021-4-20T07:57:32Z
2021-04-20T05:59:26Z,42.805,6.029,13.3017,4.60097,2470.04,2021-4-20T08:00:35Z
2021-04-20T06:02:30Z,42.805,6.029,13.3014,4.60127,2470.1,2021-4-20T08:03:39Z
2021-04-20T06:05:33Z,42.805,6.029,13.3021,4.60035,2470.017,2021-4-20T08:06:42Z
2021-04-20T06:08:36Z,42.805,6.029,13.3000,4.60049,2470.053,2021-4-20T08:09:45Z
2021-04-20T06:11:39Z,42.805,6.029,13.3001,4.60046,2470.017,2021-4-20T08:12:48Z
2021-04-20T06:14:42Z,42.805,6.029,13.3009,4.60077,2470.017,2021-4-20T08:15:51Z
2021-04-20T06:17:45Z,42.805,6.029,13.3006,4.60116,2470.03,2021-4-20T08:18:54Z
2021-04-20T06:20:48Z,42.805,6.029,13.3003,4.60057,2470.017,2021-4-20T08:21:57Z
2021-04-20T06:23:51Z,42.805,6.029,13.3007,4.60098,2470.04,2021-4-20T08:25:00Z
2021-04-20T06:26:54Z,42.805,6.029,13.3014,4.60081,2470.03,2021-4-20T08:28:03Z
2021-04-20T06:29:58Z,42.805,6.029,13.3019,4.60087,2470.04,2021-4-20T08:31:07Z
2021-04-20T06:33:01Z,42.805,6.029,13.3006,4.60082,2470.04,2021-4-20T08:34:10Z
2021-04-20T06:36:04Z,42.805,6.029,13.3014,4.60072,2470.017,2021-4-20T08:37:13Z
2021-04-20T06:39:07Z,42.805,6.029,13.3000,4.60079,2470.017,2021-4-20T08:40:16Z
2021-04-20T06:42:10Z,42.805,6.029,13.3011,4.60064,2470.03,2021-4-20T08:43:19Z
2021-04-20T06:45:13Z,42.805,6.029,13.3007,4.60038,2470.053,2021-4-20T08:46:22Z
2021-04-20T06:48:16Z,42.805,6.029,13.3000,4.60041,2470.017,2021-4-20T08:49:25Z
2021-04-20T06:51:19Z,42.805,6.029,13.3005,4.60034,2470.04,2021-4-20T08:52:28Z
2021-04-20T06:54:23Z,42.805,6.029,13.2998,4.60072,2470.053,2021-4-20T08:55:32Z
2021-04-20T06:57:26Z,42.805,6.029,13.3012,4.60064,2470.053,2021-4-20T08:58:35Z
2021-04-20T07:00:29Z,42.805,6.029,13.2998,4.60081,2470.04,2021-4-20T09:01:38Z
2021-04-20T07:03:32Z,42.805,6.029,13.3011,4.60089,2470.053,2021-4-20T09:04:41Z
2021-04-20T07:06:35Z,42.805,6.029,13.3004,4.60050,2470.04,2021-4-20T09:07:44Z
2021-04-20T07:09:38Z,42.805,6.029,13.3006,4.60096,2470.04,2021-4-20T09:10:47Z
2021-04-20T07:12:41Z,42.805,6.029,13.3014,4.60041,2470.017,2021-4-20T09:13:50Z
2021-04-20T07:15:44Z,42.805,6.029,13.3015,4.60062,2470.04,2021-4-20T09:16:53Z
2021-04-20T07:18:48Z,42.805,6.029,13.3016,4.60092,2470.03,2021-4-20T09:19:57Z
2021-04-20T07:21:51Z,42.805,6.029,13.3016,4.60084,2470.053,2021-4-20T09:23:00Z
2021-04-20T07:24:54Z,42.805,6.029,13.3006,4.60110,2470.017,2021-4-20T09:26:03Z
2021-04-20T07:27:57Z,42.805,6.029,13.3008,4.60064,2470.017,2021-4-20T09:29:06Z
2021-04-20T07:31:00Z,42.805,6.029,13.3007,4.60052,2470.053,2021-4-20T09:32:09Z
2021-04-20T07:34:03Z,42.805,6.029,13.3015,4.60063,2470.017,2021-4-20T09:35:12Z
2021-04-20T07:37:06Z,42.805,6.029,13.3008,4.60076,2470.03,2021-4-20T09:38:15Z
2021-04-20T07:40:09Z,42.805,6.029,13.3006,4.60040,2470.053,2021-4-20T09:41:18Z
2021-04-20T07:43:13Z,42.805,6.029,13.2993,4.60077,2470.017,2021-4-20T09:44:22Z
2021-04-20T07:46:16Z,42.805,6.029,13.2995,4.60090,2470.017,2021-4-20T09:47:25Z
2021-04-20T07:49:19Z,42.805,6.029,13.3003,4.60078,2470.04,2021-4-20T09:50:28Z
2021-04-20T07:52:22Z,42.805,6.029,13.2998,4.60081,2470.053,2021-4-20T09:53:31Z
2021-04-20T07:55:25Z,42.805,6.029,13.2991,4.60054,2470.04,2021-4-20T09:56:34Z
2021-04-20T07:58:28Z,42.805,6.029,13.2997,4.60068,2470.04,2021-4-20T09:59:37Z
2021-04-20T08:01:31Z,42.805,6.029,13.2990,4.60040,2470.04,2021-4-20T10:02:40Z
2021-04-20T08:04:34Z,42.805,6.029,13.3001,4.60059,2470.03,2021-4-20T10:05:43Z
2021-04-20T08:07:38Z,42.805,6.029,13.3001,4.60082,2470.04,2021-4-20T10:08:47Z
2021-04-20T08:10:41Z,42.805,6.029,13.2993,4.60085,2470.03,2021-4-20T10:11:50Z
2021-04-20T08:13:44Z,42.805,6.029,13.2998,4.60047,2470.04,2021-4-20T10:14:53Z
2021-04-20T08:16:47Z,42.805,6.029,13.2993,4.60046,2470.077,2021-4-20T10:17:56Z
2021-04-20T08:19:50Z,42.805,6.029,13.2992,4.60053,2470.017,2021-4-20T10:20:59Z
2021-04-20T08:22:53Z,42.805,6.029,13.3001,4.60060,2470.063,2021-4-20T10:24:02Z
2021-04-20T08:25:56Z,42.805,6.029,13.2996,4.60056,2470.053,2021-4-20T10:27:05Z
2021-04-20T08:28:59Z,42.805,6.029,13.2994,4.60036,2470.053,2021-4-20T10:30:08Z
2021-04-20T08:32:03Z,42.805,6.029,13.2993,4.60045,2470.063,2021-4-20T10:33:12Z
2021-04-20T08:35:06Z,42.805,6.029,13.2992,4.60031,2470.053,2021-4-20T10:36:15Z
2021-04-20T08:38:09Z,42.805,6.029,13.2997,4.60021,2470.063,2021-4-20T10:39:18Z
2021-04-20T08:41:12Z,42.805,6.029,13.2990,4.60052,2470.087,2021-4-20T10:42:21Z
2021-04-20T08:44:15Z,42.805,6.029,13.2998,4.60054,2470.077,2021-4-20T10:45:24Z
2021-04-20T08:47:18Z,42.805,6.029,13.2995,4.60033,2470.053,2021-4-20T10:48:27Z
2021-04-20T08:50:21Z,42.805,6.029,13.2994,4.60041,2470.063,2021-4-20T10:51:30Z
2021-04-20T08:53:24Z,42.805,6.029,13.2997,4.60036,2470.04,2021-4-20T10:54:33Z
2021-04-20T08:56:28Z,42.805,6.029,13.2991,4.60051,2470.077,2021-4-20T10:57:37Z
2021-04-20T08:59:31Z,42.805,6.029,13.2998,4.60033,2470.063,2021-4-20T11:00:40Z
2021-04-20T09:02:34Z,42.805,6.029,13.2993,4.60066,2470.063,2021-4-20T11:03:43Z
2021-04-20T09:05:37Z,42.805,6.029,13.2989,4.60041,2470.063,2021-4-20T11:06:46Z
2021-04-20T09:08:40Z,42.805,6.029,13.2995,4.60036,2470.087,2021-4-20T11:09:49Z
2021-04-20T09:11:43Z,42.805,6.029,13.2993,4.60021,2470.077,2021-4-20T11:12:52Z
2021-04-20T09:14:46Z,42.805,6.029,13.2991,4.60027,2470.077,2021-4-20T11:15:55Z
2021-04-20T09:17:49Z,42.805,6.029,13.2991,4.60019,2470.063,2021-4-20T11:18:58Z
2021-04-20T09:20:53Z,42.805,6.029,13.3001,4.60052,2470.1,2021-4-20T11:22:02Z
2021-04-20T09:23:56Z,42.805,6.029,13.3014,4.60059,2470.03,2021-4-20T11:25:05Z
2021-04-20T09:26:59Z,42.805,6.029,13.2993,4.60031,2470.04,2021-4-20T11:28:08Z
2021-04-20T09:30:02Z,42.805,6.029,13.2997,4.60035,2470.1,2021-4-20T11:31:11Z
2021-04-20T09:33:05Z,42.805,6.029,13.2996,4.60052,2470.1,2021-4-20T11:34:14Z
2021-04-20T09:36:08Z,42.805,6.029,13.3000,4.60049,2470.1,2021-4-20T11:37:17Z
2021-04-20T09:39:11Z,42.805,6.029,13.3004,4.60047,2470.063,2021-4-20T11:40:20Z
2021-04-20T09:42:14Z,42.805,6.029,13.3009,4.60031,2470.1,2021-4-20T11:43:23Z
2021-04-20T09:45:18Z,42.805,6.029,13.3006,4.60034,2470.077,2021-4-20T11:46:27Z
2021-04-20T09:48:21Z,42.805,6.029,13.3003,4.60066,2470.087,2021-4-20T11:49:30Z
2021-04-20T09:51:24Z,42.805,6.029,13.2995,4.60024,2470.087,2021-4-20T11:52:33Z
2021-04-20T09:54:27Z,42.805,6.029,13.2998,4.60034,2470.063,2021-4-20T11:55:36Z
2021-04-20T09:57:30Z,42.805,6.029,13.2993,4.60023,2470.077,2021-4-20T11:58:39Z
2021-04-20T10:00:33Z,42.805,6.029,13.2995,4.60053,2470.077,2021-4-20T12:01:42Z
2021-04-20T10:03:36Z,42.805,6.029,13.3010,4.60029,2470.063,2021-4-20T12:04:45Z
2021-04-20T10:06:39Z,42.805,6.029,13.3004,4.60070,2470.087,2021-4-20T12:07:48Z
2021-04-20T10:09:43Z,42.805,6.029,13.3006,4.60045,2470.087,2021-4-20T12:10:52Z
2021-04-20T10:12:46Z,42.805,6.029,13.3018,4.60044,2470.077,2021-4-20T12:13:55Z
2021-04-20T10:15:49Z,42.805,6.029,13.2998,4.60016,2470.087,2021-4-20T12:16:58Z
2021-04-20T10:18:52Z,42.805,6.029,13.2991,4.60023,2470.063,2021-4-20T12:20:01Z
2021-04-20T10:21:55Z,42.805,6.029,13.2990,4.60027,2470.087,2021-4-20T12:23:04Z
2021-04-20T10:24:58Z,42.805,6.029,13.3003,4.60051,2470.087,2021-4-20T12:26:07Z
2021-04-20T10:28:01Z,42.805,6.029,13.3011,4.60059,2470.087,2021-4-20T12:29:10Z
2021-04-20T10:31:05Z,42.805,6.029,13.2996,4.60027,2470.077,2021-4-20T12:32:14Z
2021-04-20T10:34:08Z,42.805,6.029,13.2994,4.60026,2470.087,2021-4-20T12:35:17Z
2021-04-20T10:37:11Z,42.805,6.029,13.2990,4.60014,2470.1,2021-4-20T12:38:20Z
2021-04-20T10:40:14Z,42.805,6.029,13.2996,4.60016,2470.063,2021-4-20T12:41:23Z
2021-04-20T10:43:17Z,42.805,6.029,13.3005,4.60024,2470.1,2021-4-20T12:44:26Z
2021-04-20T10:46:20Z,42.805,6.029,13.2990,4.60029,2470.1,2021-4-20T12:47:29Z
2021-04-20T10:49:23Z,42.805,6.029,13.2990,4.60013,2470.11,2021-4-20T12:50:32Z
2021-04-20T10:52:26Z,42.805,6.029,13.2994,4.60011,2470.087,2021-4-20T12:53:35Z
2021-04-20T10:55:30Z,42.805,6.029,13.3004,4.60034,2470.1,2021-4-20T12:56:39Z
2021-04-20T10:58:33Z,42.805,6.029,13.2995,4.60029,2470.11,2021-4-20T12:59:42Z
2021-04-20T11:01:36Z,42.805,6.029,13.2995,4.60036,2470.124,2021-4-20T13:02:45Z
2021-04-20T11:04:39Z,42.805,6.029,13.3000,4.60027,2470.1,2021-4-20T13:05:48Z
2021-04-20T11:07:42Z,42.805,6.029,13.2986,4.60014,2470.124,2021-4-20T13:08:51Z
2021-04-20T11:10:45Z,42.805,6.029,13.2996,4.60020,2470.1,2021-4-20T13:11:54Z
2021-04-20T11:13:48Z,42.805,6.029,13.2992,4.60011,2470.1,2021-4-20T13:14:57Z
2021-04-20T11:16:51Z,42.805,6.029,13.2999,4.60025,2470.11,2021-4-20T13:18:00Z
2021-04-20T11:19:55Z,42.805,6.029,13.2998,4.60030,2470.063,2021-4-20T13:21:04Z
2021-04-20T11:22:58Z,42.805,6.029,13.3002,4.60034,2470.124,2021-4-20T13:24:07Z
2021-04-20T11:26:01Z,42.805,6.029,13.2997,4.60025,2470.087,2021-4-20T13:27:10Z
2021-04-20T11:29:04Z,42.805,6.029,13.2998,4.60037,2470.124,2021-4-20T13:30:13Z
2021-04-20T11:32:07Z,42.805,6.029,13.2992,4.60029,2470.1,2021-4-20T13:33:16Z
2021-04-20T11:35:10Z,42.805,6.029,13.2992,4.60029,2470.087,2021-4-20T13:36:19Z
2021-04-20T11:38:13Z,42.805,6.029,13.2999,4.60019,2470.11,2021-4-20T13:39:22Z
2021-04-20T11:41:16Z,42.805,6.029,13.2990,4.60014,2470.077,2021-4-20T13:42:26Z
2021-04-20T11:44:20Z,42.805,6.029,13.2993,4.60017,2470.087,2021-4-20T13:45:29Z
2021-04-20T11:47:23Z,42.805,6.029,13.2995,4.60044,2470.124,2021-4-20T13:48:32Z
2021-04-20T11:50:26Z,42.805,6.029,13.3001,4.60044,2470.1,2021-4-20T13:51:35Z
2021-04-20T11:53:29Z,42.805,6.029,13.2997,4.60018,2470.1,2021-4-20T13:54:38Z
2021-04-20T11:56:32Z,42.805,6.029,13.2995,4.60026,2470.133,2021-4-20T13:57:41Z
2021-04-20T11:59:35Z,42.805,6.029,13.3000,4.60031,2470.11,2021-4-20T14:00:44Z
2021-04-20T12:02:38Z,42.805,6.029,13.2998,4.60051,2470.11,2021-4-20T14:03:47Z
2021-04-20T12:05:41Z,42.805,6.029,13.2993,4.60034,2470.124,2021-4-20T14:06:51Z
2021-04-20T12:08:45Z,42.805,6.029,13.2993,4.60040,2470.1,2021-4-20T14:09:54Z
2021-04-20T12:11:48Z,42.805,6.029,13.2999,4.60019,2470.124,2021-4-20T14:12:57Z
2021-04-20T12:14:51Z,42.805,6.029,13.2985,4.60014,2470.124,2021-4-20T14:16:00Z
2021-04-20T12:17:54Z,42.805,6.029,13.2995,4.60039,2470.133,2021-4-20T14:19:03Z
2021-04-20T12:20:57Z,42.805,6.029,13.3000,4.60019,2470.087,2021-4-20T14:22:06Z
2021-04-20T12:24:00Z,42.805,6.029,13.2996,4.60032,2470.133,2021-4-20T14:25:09Z
2021-04-20T12:27:03Z,42.805,6.029,13.2990,4.60011,2470.133,2021-4-20T14:28:12Z
2021-04-20T12:30:07Z,42.805,6.029,13.2992,4.60020,2470.11,2021-4-20T14:31:16Z
2021-04-20T12:33:10Z,42.805,6.029,13.2998,4.60040,2470.11,2021-4-20T14:34:19Z
2021-04-20T12:36:13Z,42.805,6.029,13.2993,4.60047,2470.124,2021-4-20T14:37:22Z
2021-04-20T12:39:16Z,42.805,6.029,13.3002,4.60034,2470.133,2021-4-20T14:40:25Z
2021-04-20T12:42:19Z,42.805,6.029,13.2986,4.60025,2470.133,2021-4-20T14:43:28Z
2021-04-20T12:45:22Z,42.805,6.029,13.3000,4.60052,2470.147,2021-4-20T14:46:31Z
2021-04-20T12:48:25Z,42.805,6.029,13.3005,4.60048,2470.124,2021-4-20T14:49:34Z
2021-04-20T12:51:28Z,42.805,6.029,13.3026,4.60049,2470.11,2021-4-20T14:52:37Z
2021-04-20T12:54:32Z,42.805,6.029,13.3015,4.60044,2470.124,2021-4-20T14:55:41Z
2021-04-20T12:57:35Z,42.805,6.029,13.2992,4.60052,2470.087,2021-4-20T14:58:44Z
2021-04-20T13:00:38Z,42.805,6.029,13.3014,4.60017,2470.156,2021-4-20T15:01:47Z
2021-04-20T13:03:41Z,42.805,6.029,13.3019,4.60052,2470.147,2021-4-20T15:04:50Z
2021-04-20T13:06:44Z,42.805,6.029,13.3002,4.60061,2470.11,2021-4-20T15:07:53Z
2021-04-20T13:09:47Z,42.805,6.029,13.2991,4.60030,2470.11,2021-4-20T15:10:56Z
2021-04-20T13:12:50Z,42.805,6.029,13.2992,4.60049,2470.133,2021-4-20T15:13:59Z
2021-04-20T13:15:53Z,42.805,6.029,13.2998,4.60028,2470.147,2021-4-20T15:17:02Z
2021-04-20T13:18:57Z,42.805,6.029,13.2995,4.60033,2470.133,2021-4-20T15:20:06Z
2021-04-20T13:22:00Z,42.805,6.029,13.3003,4.60044,2470.133,2021-4-20T15:23:09Z
2021-04-20T13:25:03Z,42.805,6.029,13.3023,4.60057,2470.133,2021-4-20T15:26:12Z
2021-04-20T13:28:06Z,42.805,6.029,13.3020,4.60034,2470.133,2021-4-20T15:29:15Z
2021-04-20T13:31:09Z,42.805,6.029,13.3004,4.60033,2470.171,2021-4-20T15:32:18Z
2021-04-20T13:34:12Z,42.805,6.029,13.3015,4.60061,2470.133,2021-4-20T15:35:21Z
2021-04-20T13:37:15Z,42.805,6.029,13.2992,4.60049,2470.147,2021-4-20T15:38:24Z
2021-04-20T13:40:18Z,42.805,6.029,13.3002,4.60055,2470.147,2021-4-20T15:41:27Z
2021-04-20T13:43:22Z,42.805,6.029,13.2996,4.60052,2470.087,2021-4-20T15:44:31Z
2021-04-20T13:46:25Z,42.805,6.029,13.2990,4.60022,2470.147,2021-4-20T15:47:34Z
2021-04-20T13:49:28Z,42.805,6.029,13.2987,4.60037,2470.171,2021-4-20T15:50:37Z
2021-04-20T13:52:31Z,42.805,6.029,13.2991,4.60021,2470.147,2021-4-20T15:53:40Z
2021-04-20T13:55:34Z,42.805,6.029,13.2997,4.60025,2470.11,2021-4-20T15:56:43Z
2021-04-20T13:58:37Z,42.805,6.029,13.2985,4.60039,2470.11,2021-4-20T15:59:46Z
2021-04-20T14:01:40Z,42.805,6.029,13.3000,4.60033,2470.147,2021-4-20T16:02:49Z
2021-04-20T14:04:43Z,42.805,6.029,13.2996,4.60029,2470.133,2021-4-20T16:05:53Z
2021-04-20T14:07:47Z,42.805,6.029,13.3000,4.60059,2470.087,2021-4-20T16:08:56Z
2021-04-20T14:10:50Z,42.805,6.029,13.3010,4.60035,2470.147,2021-4-20T16:11:59Z
2021-04-20T14:13:53Z,42.805,6.029,13.3005,4.60054,2470.133,2021-4-20T16:15:02Z
2021-04-20T14:16:56Z,42.805,6.029,13.3014,4.60070,2470.147,2021-4-20T16:18:05Z
2021-04-20T14:19:59Z,42.805,6.029,13.3019,4.60057,2470.171,2021-4-20T16:21:08Z
2021-04-20T14:23:02Z,42.805,6.029,13.3039,4.60061,2470.133,2021-4-20T16:24:11Z
2021-04-20T14:26:05Z,42.805,6.029,13.3021,4.60057,2470.156,2021-4-20T16:27:14Z
2021-04-20T14:29:09Z,42.805,6.029,13.3031,4.60058,2470.133,2021-4-20T16:30:18Z
2021-04-20T14:32:12Z,42.805,6.029,13.3030,4.60105,2470.147,2021-4-20T16:33:21Z
2021-04-20T14:35:15Z,42.805,6.029,13.3044,4.60031,2470.194,2021-4-20T16:36:24Z
2021-04-20T14:38:18Z,42.805,6.029,13.3026,4.60049,2470.147,2021-4-20T16:39:27Z
2021-04-20T14:41:21Z,42.805,6.029,13.3038,4.60081,2470.156,2021-4-20T16:42:30Z
2021-04-20T14:44:24Z,42.805,6.029,13.3025,4.60068,2470.11,2021-4-20T16:45:33Z
2021-04-20T14:47:27Z,42.805,6.029,13.3026,4.60067,2470.147,2021-4-20T16:48:36Z
2021-04-20T14:50:30Z,42.805,6.029,13.3029,4.60066,2470.124,2021-4-20T16:51:39Z
2021-04-20T14:53:34Z,42.805,6.029,13.3063,4.60044,2470.156,2021-4-20T16:54:43Z
2021-04-20T14:56:37Z,42.805,6.029,13.3054,4.60104,2470.147,2021-4-20T16:57:46Z
2021-04-20T14:59:40Z,42.805,6.029,13.3045,4.60066,2470.133,2021-4-20T17:00:49Z
2021-04-20T15:02:43Z,42.805,6.029,13.3039,4.60086,2470.11,2021-4-20T17:03:52Z
2021-04-20T15:05:46Z,42.805,6.029,13.3036,4.60063,2470.147,2021-4-20T17:06:55Z
2021-04-20T15:08:49Z,42.805,6.029,13.3003,4.60033,2470.147,2021-4-20T17:09:58Z
2021-04-20T15:11:52Z,42.805,6.029,13.3034,4.60031,2470.171,2021-4-20T17:13:01Z
2021-04-20T15:14:55Z,42.805,6.029,13.3029,4.60014,2470.147,2021-4-20T17:16:04Z